Time,TemperatureF,DewpointF,PressureIn,WindDirection,WindDirectionDegrees,WindSpeedMPH,WindSpeedGustMPH,Humidity,HourlyPrecipIn,Conditions,Clouds,dailyrainin,SoftwareType,DateUTC
2013-05-13 00:01:00,58.0,56.0,29.99,SE,137,1.0,-999.0,93,-99.99,,,-99.99,,2013-05-13 07:01:00,
2013-05-13 00:11:00,58.0,56.0,29.99,SE,137,1.0,-999.0,93,-99.99,,,-99.99,,2013-05-13 07:11:00,
2013-05-13 00:21:00,57.0,55.0,29.99,South,170,2.0,-999.0,93,-99.99,,,-99.99,,2013-05-13 07:21:00,
2013-05-13 00:31:00,57.0,55.0,30.00,South,184,2.0,-999.0,93,-99.99,,,-99.99,,2013-05-13 07:31:00,
2013-05-13 00:41:00,57.0,55.0,30.00,SSE,163,2.0,-999.0,93,-99.99,,,-99.99,,2013-05-13 07:41:00,
2013-05-13 00:52:00,57.0,55.0,30.00,SSE,163,2.0,-999.0,93,-99.99,,,-99.99,,2013-05-13 07:52:00,
2013-05-13 01:01:00,57.0,55.0,30.00,SSW,198,1.0,-999.0,93,-99.99,,,-99.99,,2013-05-13 08:01:00,
2013-05-13 01:11:00,57.0,55.0,30.00,SSW,198,1.0,-999.0,93,-99.99,,,-99.99,,2013-05-13 08:11:00,
2013-05-13 01:21:00,57.0,55.0,30.00,South,175,1.0,-999.0,93,-99.99,,,-99.99,,2013-05-13 08:21:00,
2013-05-13 01:31:00,57.0,55.0,30.00,South,180,1.0,-999.0,93,-99.99,,,-99.99,,2013-05-13 08:31:00,
2013-05-13 01:41:00,57.0,55.0,30.00,South,180,1.0,-999.0,93,-99.99,,,-99.99,,2013-05-13 08:41:00,
2013-05-13 01:51:00,57.0,55.0,30.00,SSW,199,1.0,-999.0,93,-99.99,,,-99.99,,2013-05-13 08:51:00,
2013-05-13 02:01:00,57.0,55.0,29.99,South,171,1.0,-999.0,93,-99.99,,,-99.99,,2013-05-13 09:01:00,
2013-05-13 02:11:00,57.0,55.0,29.99,South,171,1.0,-999.0,93,-99.99,,,-99.99,,2013-05-13 09:11:00,
2013-05-13 02:21:00,56.0,54.0,29.99,South,180,3.0,-999.0,93,-99.99,,,-99.99,,2013-05-13 09:21:00,
2013-05-13 02:32:00,56.0,54.0,29.99,SSE,165,2.0,-999.0,93,-99.99,,,-99.99,,2013-05-13 09:32:00,
2013-05-13 02:42:00,56.0,54.0,29.99,SSE,165,2.0,-999.0,93,-99.99,,,-99.99,,2013-05-13 09:42:00,
2013-05-13 02:52:00,56.0,54.0,29.98,South,186,2.0,-999.0,93,-99.99,,,-99.99,,2013-05-13 09:52:00,
2013-05-13 03:02:00,56.0,54.0,30.00,South,176,2.0,-999.0,93,-99.99,,,-99.99,,2013-05-13 10:02:00,
2013-05-13 03:12:00,56.0,54.0,30.00,South,176,2.0,-999.0,93,-99.99,,,-99.99,,2013-05-13 10:12:00,
2013-05-13 03:22:00,56.0,54.0,29.99,SSW,194,2.0,-999.0,93,-99.99,,,-99.99,,2013-05-13 10:22:00,
2013-05-13 03:32:00,55.0,53.0,29.99,South,175,1.0,-999.0,93,-99.99,,,-99.99,,2013-05-13 10:32:00,
2013-05-13 03:42:00,55.0,53.0,29.99,South,175,1.0,-999.0,93,-99.99,,,-99.99,,2013-05-13 10:42:00,
2013-05-13 03:52:00,55.0,53.0,29.98,South,186,2.0,-999.0,93,-99.99,,,-99.99,,2013-05-13 10:52:00,
2013-05-13 04:02:00,55.0,53.0,29.98,SE,144,3.0,-999.0,94,-99.99,,,-99.99,,2013-05-13 11:02:00,
2013-05-13 04:12:00,55.0,53.0,29.98,SE,144,3.0,-999.0,94,-99.99,,,-99.99,,2013-05-13 11:12:00,
2013-05-13 04:21:00,55.0,53.0,29.99,South,178,2.0,-999.0,94,-99.99,,,-99.99,,2013-05-13 11:21:00,
2013-05-13 04:32:00,55.0,53.0,29.98,SSW,194,2.0,-999.0,94,-99.99,,,-99.99,,2013-05-13 11:32:00,
2013-05-13 04:41:00,55.0,53.0,29.98,SSW,194,2.0,-999.0,94,-99.99,,,-99.99,,2013-05-13 11:41:00,
2013-05-13 04:51:00,55.0,53.0,29.96,South,173,0.0,-999.0,94,-99.99,,,-99.99,,2013-05-13 11:51:00,
2013-05-13 05:01:00,55.0,53.0,29.97,South,175,1.0,-999.0,94,-99.99,,,-99.99,,2013-05-13 12:01:00,
2013-05-13 05:11:00,55.0,53.0,29.97,South,175,1.0,-999.0,94,-99.99,,,-99.99,,2013-05-13 12:11:00,
2013-05-13 05:21:00,55.0,53.0,29.97,South,180,2.0,-999.0,94,-99.99,,,-99.99,,2013-05-13 12:21:00,
2013-05-13 05:32:00,55.0,53.0,29.98,SSW,200,1.0,-999.0,94,-99.99,,,-99.99,,2013-05-13 12:32:00,
2013-05-13 05:42:00,55.0,53.0,29.98,SSW,200,1.0,-999.0,94,-99.99,,,-99.99,,2013-05-13 12:42:00,
2013-05-13 05:51:00,55.0,53.0,29.98,SSW,198,1.0,-999.0,94,-99.99,,,-99.99,,2013-05-13 12:51:00,
2013-05-13 06:01:00,55.0,54.0,29.98,South,177,1.0,-999.0,95,-99.99,,,-99.99,,2013-05-13 13:01:00,
2013-05-13 06:11:00,55.0,54.0,29.98,South,177,1.0,-999.0,95,-99.99,,,-99.99,,2013-05-13 13:11:00,
2013-05-13 06:21:00,55.0,54.0,29.98,South,173,2.0,-999.0,95,-99.99,,,-99.99,,2013-05-13 13:21:00,
2013-05-13 06:31:00,55.0,54.0,29.98,South,180,3.0,-999.0,95,-99.99,,,-99.99,,2013-05-13 13:31:00,
2013-05-13 06:41:00,55.0,54.0,29.98,South,180,3.0,-999.0,95,-99.99,,,-99.99,,2013-05-13 13:41:00,
2013-05-13 06:52:00,55.0,53.0,29.97,South,186,3.0,-999.0,94,-99.99,,,-99.99,,2013-05-13 13:52:00,
2013-05-13 07:01:00,55.0,53.0,29.96,South,180,2.0,-999.0,94,-99.99,,,-99.99,,2013-05-13 14:01:00,
2013-05-13 07:11:00,55.0,53.0,29.96,South,180,2.0,-999.0,94,-99.99,,,-99.99,,2013-05-13 14:11:00,
2013-05-13 07:22:00,55.0,53.0,29.96,South,175,2.0,-999.0,94,-99.99,,,-99.99,,2013-05-13 14:22:00,
2013-05-13 07:31:00,55.0,53.0,29.96,South,191,3.0,-999.0,93,-99.99,,,-99.99,,2013-05-13 14:31:00,
2013-05-13 07:41:00,55.0,53.0,29.96,South,191,3.0,-999.0,93,-99.99,,,-99.99,,2013-05-13 14:41:00,
2013-05-13 07:51:00,56.0,54.0,29.97,SSE,156,2.0,-999.0,93,-99.99,,,-99.99,,2013-05-13 14:51:00,
2013-05-13 08:01:00,56.0,54.0,29.96,SSE,168,2.0,-999.0,93,-99.99,,,-99.99,,2013-05-13 15:01:00,
2013-05-13 08:11:00,56.0,54.0,29.96,SSE,168,2.0,-999.0,93,-99.99,,,-99.99,,2013-05-13 15:11:00,
2013-05-13 08:21:00,57.0,55.0,29.96,SSW,199,2.0,-999.0,92,-99.99,,,-99.99,,2013-05-13 15:21:00,
2013-05-13 08:31:00,57.0,55.0,29.96,South,173,3.0,-999.0,92,-99.99,,,-99.99,,2013-05-13 15:31:00,
2013-05-13 08:42:00,57.0,55.0,29.96,South,173,3.0,-999.0,92,-99.99,,,-99.99,,2013-05-13 15:42:00,
2013-05-13 08:52:00,58.0,55.0,29.97,South,182,2.0,-999.0,91,-99.99,,,-99.99,,2013-05-13 15:52:00,
2013-05-13 09:03:00,58.0,55.0,29.97,SSW,200,2.0,-999.0,90,-99.99,,,-99.99,,2013-05-13 16:03:00,
2013-05-13 09:11:00,58.0,55.0,29.97,SSW,200,2.0,-999.0,90,-99.99,,,-99.99,,2013-05-13 16:11:00,
2013-05-13 09:21:00,58.0,55.0,29.96,South,186,2.0,-999.0,91,-99.99,,,-99.99,,2013-05-13 16:21:00,
2013-05-13 09:33:00,58.0,55.0,29.97,SSE,148,2.0,-999.0,91,-99.99,,,-99.99,,2013-05-13 16:33:00,
2013-05-13 09:42:00,58.0,56.0,29.96,South,189,1.0,-999.0,92,-99.99,,,-99.99,,2013-05-13 16:42:00,
2013-05-13 09:52:00,58.0,56.0,29.96,South,189,1.0,-999.0,92,-99.99,,,-99.99,,2013-05-13 16:52:00,
2013-05-13 10:02:00,58.0,56.0,29.96,SSE,167,2.0,-999.0,92,-99.99,,,-99.99,,2013-05-13 17:02:00,
2013-05-13 10:12:00,58.0,56.0,29.96,SSE,167,2.0,-999.0,92,-99.99,,,-99.99,,2013-05-13 17:12:00,
2013-05-13 10:21:00,58.0,55.0,29.95,SW,236,3.0,-999.0,91,-99.99,,,-99.99,,2013-05-13 17:21:00,
2013-05-13 10:32:00,58.0,55.0,29.95,SSW,207,1.0,-999.0,91,-99.99,,,-99.99,,2013-05-13 17:32:00,
2013-05-13 10:42:00,58.0,55.0,29.95,SSW,207,1.0,-999.0,91,-99.99,,,-99.99,,2013-05-13 17:42:00,
2013-05-13 10:54:00,59.0,56.0,29.94,South,188,3.0,-999.0,91,-99.99,,,-99.99,,2013-05-13 17:54:00,
2013-05-13 11:03:00,60.0,57.0,29.93,SSE,160,4.0,-999.0,90,-99.99,,,-99.99,,2013-05-13 18:03:00,
2013-05-13 11:12:00,60.0,57.0,29.93,SSE,160,4.0,-999.0,90,-99.99,,,-99.99,,2013-05-13 18:12:00,
2013-05-13 11:22:00,60.0,56.0,29.93,South,184,4.0,-999.0,88,-99.99,,,-99.99,,2013-05-13 18:22:00,
2013-05-13 11:32:00,61.0,58.0,29.93,SSW,194,4.0,-999.0,90,-99.99,,,-99.99,,2013-05-13 18:32:00,
2013-05-13 11:42:00,62.0,58.0,29.93,South,174,5.0,-999.0,86,-99.99,,,-99.99,,2013-05-13 18:42:00,
2013-05-13 11:51:00,62.0,58.0,29.93,South,174,5.0,-999.0,86,-99.99,,,-99.99,,2013-05-13 18:51:00,
2013-05-13 12:01:00,62.0,57.0,29.91,SSW,200,4.0,-999.0,84,-99.99,,,-99.99,,2013-05-13 19:01:00,
2013-05-13 12:11:00,62.0,57.0,29.91,SSW,200,4.0,-999.0,84,-99.99,,,-99.99,,2013-05-13 19:11:00,
2013-05-13 12:21:00,64.0,57.0,29.90,SE,145,6.0,-999.0,79,-99.99,,,-99.99,,2013-05-13 19:21:00,
2013-05-13 12:32:00,65.0,56.0,29.89,South,176,6.0,-999.0,73,-99.99,,,-99.99,,2013-05-13 19:32:00,
2013-05-13 12:43:00,65.0,56.0,29.90,SE,136,5.0,-999.0,74,-99.99,,,-99.99,,2013-05-13 19:43:00,
2013-05-13 12:52:00,65.0,56.0,29.90,SE,136,5.0,-999.0,74,-99.99,,,-99.99,,2013-05-13 19:52:00,
2013-05-13 13:01:00,64.0,56.0,29.89,SSE,167,5.0,-999.0,74,-99.99,,,-99.99,,2013-05-13 20:01:00,
2013-05-13 13:11:00,64.0,56.0,29.89,SSE,167,5.0,-999.0,74,-99.99,,,-99.99,,2013-05-13 20:11:00,
2013-05-13 13:23:00,64.0,56.0,29.89,SSE,152,3.0,-999.0,76,-99.99,,,-99.99,,2013-05-13 20:23:00,
2013-05-13 13:33:00,64.0,56.0,29.89,SSE,160,3.0,-999.0,75,-99.99,,,-99.99,,2013-05-13 20:33:00,
2013-05-13 13:44:00,64.0,56.0,29.89,SSE,160,3.0,-999.0,75,-99.99,,,-99.99,,2013-05-13 20:44:00,
2013-05-13 13:53:00,63.0,56.0,29.89,SSE,157,4.0,-999.0,77,-99.99,,,-99.99,,2013-05-13 20:53:00,
2013-05-13 14:02:00,61.0,55.0,29.91,South,183,4.0,-999.0,81,-99.99,,,-99.99,,2013-05-13 21:02:00,
2013-05-13 14:14:00,61.0,55.0,29.91,South,183,4.0,-999.0,81,-99.99,,,-99.99,,2013-05-13 21:14:00,
2013-05-13 14:22:00,57.0,53.0,29.93,SW,225,5.0,-999.0,86,-99.99,,,-99.99,,2013-05-13 21:22:00,
2013-05-13 14:33:00,55.0,52.0,29.93,South,181,3.0,-999.0,90,-99.99,,,-99.99,,2013-05-13 21:33:00,
2013-05-13 14:43:00,55.0,52.0,29.93,South,181,3.0,-999.0,90,-99.99,,,-99.99,,2013-05-13 21:43:00,
2013-05-13 14:52:00,56.0,54.0,29.93,SSE,165,4.0,-999.0,92,-99.99,,,-99.99,,2013-05-13 21:52:00,
2013-05-13 15:02:00,58.0,56.0,29.93,SSE,164,5.0,-999.0,92,-99.99,,,-99.99,,2013-05-13 22:02:00,
2013-05-13 15:12:00,58.0,56.0,29.93,SSE,164,5.0,-999.0,92,-99.99,,,-99.99,,2013-05-13 22:12:00,
2013-05-13 15:22:00,59.0,56.0,29.92,South,180,6.0,-999.0,90,-99.99,,,-99.99,,2013-05-13 22:22:00,
2013-05-13 15:32:00,59.0,54.0,29.94,SSE,149,8.0,-999.0,85,-99.99,,,-99.99,,2013-05-13 22:32:00,
2013-05-13 15:42:00,57.0,54.0,29.95,WSW,244,8.0,-999.0,89,-99.99,,,-99.99,,2013-05-13 22:42:00,
2013-05-13 15:52:00,57.0,54.0,29.95,WSW,244,8.0,-999.0,89,-99.99,,,-99.99,,2013-05-13 22:52:00,
2013-05-13 16:01:00,58.0,54.0,29.94,WSW,243,7.0,-999.0,88,-99.99,,,-99.99,,2013-05-13 23:01:00,
2013-05-13 16:12:00,58.0,54.0,29.94,WSW,243,7.0,-999.0,88,-99.99,,,-99.99,,2013-05-13 23:12:00,
2013-05-13 16:23:00,59.0,54.0,29.95,SE,128,7.0,-999.0,83,-99.99,,,-99.99,,2013-05-13 23:23:00,
2013-05-13 16:33:00,61.0,54.0,29.95,South,183,7.0,-999.0,77,-99.99,,,-99.99,,2013-05-13 23:33:00,
2013-05-13 16:42:00,61.0,54.0,29.95,South,183,7.0,-999.0,77,-99.99,,,-99.99,,2013-05-13 23:42:00,
2013-05-13 16:53:00,59.0,53.0,29.97,SE,140,8.0,-999.0,81,-99.99,,,-99.99,,2013-05-13 23:53:00,
2013-05-13 17:02:00,59.0,51.0,29.97,SSE,167,8.0,-999.0,76,-99.99,,,-99.99,,2013-05-14 00:02:00,
2013-05-13 17:12:00,59.0,51.0,29.97,SSE,167,8.0,-999.0,76,-99.99,,,-99.99,,2013-05-14 00:12:00,
2013-05-13 17:22:00,58.0,49.0,29.98,South,171,8.0,-999.0,71,-99.99,,,-99.99,,2013-05-14 00:22:00,
2013-05-13 17:31:00,57.0,50.0,29.98,ESE,118,8.0,-999.0,76,-99.99,,,-99.99,,2013-05-14 00:31:00,
2013-05-13 17:41:00,57.0,50.0,29.98,ESE,118,8.0,-999.0,76,-99.99,,,-99.99,,2013-05-14 00:41:00,
2013-05-13 17:51:00,58.0,50.0,30.00,SSW,198,6.0,-999.0,75,-99.99,,,-99.99,,2013-05-14 00:51:00,
2013-05-13 18:01:00,57.0,47.0,29.99,SSE,155,8.0,-999.0,69,-99.99,,,-99.99,,2013-05-14 01:01:00,
2013-05-13 18:11:00,57.0,47.0,29.99,SSE,155,8.0,-999.0,69,-99.99,,,-99.99,,2013-05-14 01:11:00,
2013-05-13 18:21:00,57.0,46.0,30.00,SSE,159,9.0,-999.0,67,-99.99,,,-99.99,,2013-05-14 01:21:00,
2013-05-13 18:31:00,57.0,47.0,30.01,NNW,344,11.0,-999.0,68,-99.99,,,-99.99,,2013-05-14 01:31:00,
2013-05-13 18:43:00,57.0,47.0,30.01,NNW,344,11.0,-999.0,68,-99.99,,,-99.99,,2013-05-14 01:43:00,
2013-05-13 18:52:00,56.0,47.0,30.02,South,173,9.0,-999.0,71,-99.99,,,-99.99,,2013-05-14 01:52:00,
2013-05-13 19:02:00,56.0,47.0,30.03,South,172,7.0,-999.0,71,-99.99,,,-99.99,,2013-05-14 02:02:00,
2013-05-13 19:11:00,56.0,47.0,30.04,SSE,163,6.0,-999.0,72,-99.99,,,-99.99,,2013-05-14 02:11:00,
2013-05-13 19:21:00,56.0,47.0,30.04,SSE,163,6.0,-999.0,72,-99.99,,,-99.99,,2013-05-14 02:21:00,
2013-05-13 19:31:00,56.0,47.0,30.05,South,179,7.0,-999.0,72,-99.99,,,-99.99,,2013-05-14 02:31:00,
2013-05-13 19:42:00,56.0,47.0,30.05,South,179,7.0,-999.0,72,-99.99,,,-99.99,,2013-05-14 02:42:00,
2013-05-13 19:51:00,55.0,46.0,30.07,SSE,160,4.0,-999.0,71,-99.99,,,-99.99,,2013-05-14 02:51:00,
2013-05-13 20:01:00,55.0,45.0,30.07,SSE,163,4.0,-999.0,69,-99.99,,,-99.99,,2013-05-14 03:01:00,
2013-05-13 20:11:00,55.0,45.0,30.07,SSE,163,4.0,-999.0,69,-99.99,,,-99.99,,2013-05-14 03:11:00,
2013-05-13 20:21:00,54.0,44.0,30.08,SE,138,4.0,-999.0,70,-99.99,,,-99.99,,2013-05-14 03:21:00,
2013-05-13 20:32:00,54.0,44.0,30.09,South,178,6.0,-999.0,69,-99.99,,,-99.99,,2013-05-14 03:32:00,
2013-05-13 20:42:00,54.0,44.0,30.09,South,178,6.0,-999.0,69,-99.99,,,-99.99,,2013-05-14 03:42:00,
2013-05-13 20:52:00,53.0,44.0,30.10,SSE,147,5.0,-999.0,71,-99.99,,,-99.99,,2013-05-14 03:52:00,
2013-05-13 21:02:00,53.0,44.0,30.11,SW,214,5.0,-999.0,72,-99.99,,,-99.99,,2013-05-14 04:02:00,
2013-05-13 21:13:00,53.0,44.0,30.11,SW,214,5.0,-999.0,72,-99.99,,,-99.99,,2013-05-14 04:13:00,
2013-05-13 21:22:00,52.0,43.0,30.12,South,180,5.0,-999.0,72,-99.99,,,-99.99,,2013-05-14 04:22:00,
2013-05-13 21:32:00,52.0,44.0,30.13,SSE,159,3.0,-999.0,73,-99.99,,,-99.99,,2013-05-14 04:32:00,
2013-05-13 21:43:00,52.0,44.0,30.13,SSE,159,3.0,-999.0,73,-99.99,,,-99.99,,2013-05-14 04:43:00,
2013-05-13 21:52:00,52.0,45.0,30.14,SSW,199,4.0,-999.0,76,-99.99,,,-99.99,,2013-05-14 04:52:00,
2013-05-13 22:01:00,52.0,45.0,30.14,SSE,158,3.0,-999.0,76,-99.99,,,-99.99,,2013-05-14 05:01:00,
2013-05-13 22:12:00,52.0,45.0,30.14,SSE,158,3.0,-999.0,76,-99.99,,,-99.99,,2013-05-14 05:12:00,
2013-05-13 22:21:00,52.0,45.0,30.14,South,178,5.0,-999.0,77,-99.99,,,-99.99,,2013-05-14 05:21:00,
2013-05-13 22:32:00,51.0,44.0,30.15,South,178,4.0,-999.0,76,-99.99,,,-99.99,,2013-05-14 05:32:00,
2013-05-13 22:42:00,51.0,44.0,30.15,South,178,4.0,-999.0,76,-99.99,,,-99.99,,2013-05-14 05:42:00,
2013-05-13 22:52:00,51.0,44.0,30.14,SSE,155,4.0,-999.0,77,-99.99,,,-99.99,,2013-05-14 05:52:00,
2013-05-13 23:01:00,51.0,44.0,30.14,South,187,4.0,-999.0,78,-99.99,,,-99.99,,2013-05-14 06:01:00,
2013-05-13 23:12:00,51.0,44.0,30.14,South,187,4.0,-999.0,78,-99.99,,,-99.99,,2013-05-14 06:12:00,
2013-05-13 23:21:00,50.0,44.0,30.14,South,171,3.0,-999.0,79,-99.99,,,-99.99,,2013-05-14 06:21:00,
2013-05-13 23:32:00,50.0,44.0,30.14,South,182,3.0,-999.0,79,-99.99,,,-99.99,,2013-05-14 06:32:00,
2013-05-13 23:42:00,50.0,44.0,30.14,South,182,3.0,-999.0,79,-99.99,,,-99.99,,2013-05-14 06:42:00,
2013-05-13 23:51:00,50.0,44.0,30.14,South,191,4.0,-999.0,80,-99.99,,,-99.99,,2013-05-14 06:51:00,